Weather History for K3LF - November, 2012

Change the Weather History Date:

Saturday, November 10, 2012

  Actual Average (KSPI) Record (KSPI)
Temperature  
Mean Temperature 64 °F 46 °F  
Max Temperature 74 °F 55 °F 75 °F (1999)
Min Temperature 54 °F 36 °F 17 °F (1973)
Degree Days  
Heating Degree Days 1 19  
Month to date heating degree days 172  
Since 1 July heating degree days 582  
Cooling Degree Days 0 0  
Month to date cooling degree days 0  
Year to date cooling degree days 1121  
Growing Degree Days 14 (Base 50)    
Moisture  
Dew Point 50 °F    
Average Humidity 63    
Maximum Humidity 84    
Minimum Humidity 41    
Precipitation  
Precipitation 0.00 in 0.10 in 1.27 in (1984)
Month to date precipitation 1.03  
Year to date precipitation 32.73  
Snow  
Snow 0.00 in 0.00 in 0.10 in (1900)
Month to date snowfall 0.1  
Since 1 July snowfall 0.1  
Since 1 September snowfall 0.1  
Snow Depth -    
Sea Level Pressure  
Sea Level Pressure 29.98 in    
Wind  
Wind Speed 16 mph (SSE)    
Max Wind Speed 25 mph    
Max Gust Speed 32 mph    
Visibility 10 miles    
Events Rain    
T = Trace of Precipitation, MM = Missing Value Source: NWS Daily Summary

Daily Weather History Graph

Daily Weather History Graph

Search for Another Location

Airport or City:

Trip Planner

Search our weather history database for the weather conditions in past years. The results will help you decide how hot, cold, wet, or windy it might be!

Date:

Astronomy

Nov. 10, 2012 Rise Set
Actual Time 6:36 AM CST 4:47 PM CST
Civil Twilight 6:08 AM CST 5:16 PM CST
Nautical Twilight 5:36 AM CST 5:48 PM CST
Astronomical Twilight 5:04 AM CST 6:19 PM CST
Moon 2:43 AM CST (11/10) 2:33 PM CST (11/10)
Length of Visible Light 11h 07m
Length of Day
10h 11m
Waning Crescent, 14% of the Moon is Illuminated
Nov 10
Waning Crescent
Nov 13
New
Nov 20
First Quarter
Nov 28
Full
Dec 6
Last Quarter

Hourly Weather History & Observations

Time (CST) Temp. Dew Point Humidity Pressure Visibility Wind Dir Wind Speed Gust Speed Precip Events Conditions
12:15 AM 55.9 °F 51.3 °F 84% 30.00 in 10.0 mi South 9.2 mph - N/A   Clear
12:35 AM 55.6 °F 50.7 °F 84% 30.00 in 10.0 mi South 9.2 mph - N/A   Clear
12:55 AM 55.4 °F 50.0 °F 82% 29.99 in 10.0 mi South 10.4 mph - N/A   Clear
1:15 AM 55.0 °F 49.5 °F 81% 30.00 in 10.0 mi South 10.4 mph - N/A   Clear
1:35 AM 55.6 °F 49.1 °F 79% 30.00 in 10.0 mi SSE 10.4 mph - N/A   Clear
1:55 AM 55.4 °F 49.1 °F 79% 30.00 in 10.0 mi South 10.4 mph - N/A   Clear
2:15 AM 55.4 °F 48.9 °F 79% 30.00 in 10.0 mi South 10.4 mph - N/A   Clear
2:35 AM 54.7 °F 48.2 °F 79% 30.00 in 10.0 mi SSE 11.5 mph - N/A   Clear
2:55 AM 55.0 °F 47.3 °F 75% 30.00 in 10.0 mi SSE 11.5 mph - N/A   Clear
3:15 AM 54.7 °F 46.6 °F 74% 30.00 in 10.0 mi SSE 10.4 mph - N/A   Clear
3:35 AM 54.7 °F 46.0 °F 73% 30.00 in 10.0 mi SSE 10.4 mph - N/A   Clear
4:15 AM 54.5 °F 45.5 °F 72% 30.01 in 10.0 mi SSE 12.7 mph - N/A   Clear
4:35 AM 54.7 °F 45.5 °F 71% 30.01 in 10.0 mi SSE 11.5 mph - N/A   Clear
4:55 AM 55.4 °F 45.3 °F 69% 30.01 in 10.0 mi SSE 12.7 mph - N/A   Clear
5:35 AM 54.7 °F 45.1 °F 70% 30.00 in 10.0 mi SSE 13.8 mph - N/A   Scattered Clouds
5:55 AM 54.9 °F 45.1 °F 70% 30.00 in 10.0 mi SSE 13.8 mph - N/A   Scattered Clouds
6:15 AM 55.0 °F 45.1 °F 69% 30.01 in 10.0 mi SSE 13.8 mph - N/A   Clear
6:35 AM 54.9 °F 45.5 °F 71% 30.01 in 10.0 mi SSE 15.0 mph - N/A   Scattered Clouds
7:15 AM 55.0 °F 46.4 °F 73% 30.02 in 10.0 mi SSE 12.7 mph - N/A   Mostly Cloudy
7:35 AM 55.4 °F 47.1 °F 74% 30.02 in 10.0 mi SSE 12.7 mph - N/A Rain Light Rain
7:55 AM 55.6 °F 47.3 °F 74% 30.02 in 10.0 mi South 13.8 mph - N/A   Scattered Clouds
8:15 AM 56.8 °F 48.2 °F 73% 30.02 in 10.0 mi South 15.0 mph 19.6 mph N/A   Clear
8:35 AM 59.0 °F 48.9 °F 69% 30.02 in 10.0 mi South 19.6 mph 26.5 mph N/A   Clear
9:15 AM 61.9 °F 50.4 °F 66% 30.01 in 10.0 mi South 19.6 mph 26.5 mph N/A   Clear
9:35 AM 63.5 °F 50.9 °F 63% 30.00 in 10.0 mi South 23.0 mph 28.8 mph N/A   Clear
9:55 AM 64.4 °F 51.6 °F 63% 30.00 in 10.0 mi South 19.6 mph 25.3 mph N/A   Clear
10:15 AM 65.5 °F 51.8 °F 61% 30.00 in 10.0 mi South 24.2 mph 28.8 mph N/A   Clear
10:35 AM 66.6 °F 52.0 °F 59% 29.99 in 10.0 mi South 24.2 mph - N/A   Clear
10:55 AM 68.0 °F 52.0 °F 56% 29.98 in 10.0 mi South 24.2 mph 29.9 mph N/A   Clear
11:15 AM 68.9 °F 52.0 °F 55% 29.98 in 10.0 mi South 24.2 mph - N/A   Clear
11:35 AM 70.2 °F 52.0 °F 52% 29.97 in 10.0 mi South 19.6 mph 25.3 mph N/A   Clear
11:55 AM 71.8 °F 51.6 °F 49% 29.97 in 10.0 mi South 23.0 mph 27.6 mph N/A   Clear
12:15 PM 71.6 °F 50.0 °F 46% 29.96 in 10.0 mi SSW 23.0 mph - N/A   Clear
12:35 PM 72.5 °F 49.5 °F 44% 29.95 in 10.0 mi South 20.7 mph 26.5 mph N/A   Clear
12:55 PM 71.8 °F 49.6 °F 45% 29.94 in 10.0 mi South 21.9 mph - N/A   Clear
1:15 PM 72.5 °F 49.3 °F 44% 29.93 in 10.0 mi South 24.2 mph 29.9 mph N/A   Clear
1:35 PM 73.4 °F 49.6 °F 43% 29.93 in 10.0 mi South 23.0 mph 28.8 mph N/A   Clear
1:55 PM 74.3 °F 49.3 °F 41% 29.92 in 10.0 mi South 24.2 mph 31.1 mph N/A   Clear
2:15 PM 74.5 °F 50.5 °F 43% 29.92 in 10.0 mi South 25.3 mph - N/A   Clear
2:35 PM 74.3 °F 50.0 °F 42% 29.93 in 10.0 mi South 21.9 mph 32.2 mph N/A   Clear
2:55 PM 72.7 °F 50.4 °F 45% 29.93 in 10.0 mi South 23.0 mph 28.8 mph N/A   Clear
3:15 PM 72.1 °F 50.4 °F 46% 29.93 in 10.0 mi South 21.9 mph 29.9 mph N/A   Clear
3:35 PM 71.1 °F 51.6 °F 50% 29.93 in 10.0 mi South 20.7 mph 27.6 mph N/A   Clear
3:55 PM 70.5 °F 51.8 °F 51% 29.93 in 10.0 mi South 23.0 mph 28.8 mph N/A   Clear
4:15 PM 69.1 °F 52.2 °F 55% 29.94 in 10.0 mi South 21.9 mph 29.9 mph N/A   Clear
4:35 PM 68.0 °F 52.2 °F 57% 29.94 in 10.0 mi South 21.9 mph 27.6 mph N/A   Clear
4:55 PM 66.4 °F 53.4 °F 63% 29.95 in 10.0 mi SSE 19.6 mph 25.3 mph N/A   Clear
5:15 PM 65.7 °F 53.4 °F 65% 29.96 in 10.0 mi SSE 18.4 mph 24.2 mph N/A   Clear
5:35 PM 65.3 °F 53.1 °F 65% 29.97 in 10.0 mi SSE 18.4 mph 29.9 mph N/A   Clear
5:55 PM 65.3 °F 52.9 °F 64% 29.98 in 10.0 mi SSE 19.6 mph 28.8 mph N/A   Clear
6:15 PM 64.8 °F 52.7 °F 65% 29.98 in 10.0 mi SSE 20.7 mph 26.5 mph N/A   Clear
6:35 PM 64.4 °F 53.1 °F 67% 29.98 in 10.0 mi SSE 24.2 mph 29.9 mph N/A   Clear
6:55 PM 63.9 °F 53.1 °F 68% 29.98 in 10.0 mi SSE 20.7 mph 28.8 mph N/A   Clear
7:15 PM 63.7 °F 52.9 °F 68% 29.98 in 10.0 mi South 21.9 mph 28.8 mph N/A   Clear
7:35 PM 63.5 °F 52.7 °F 68% 29.98 in 10.0 mi SSE 19.6 mph 29.9 mph N/A   Clear
7:55 PM 63.0 °F 52.9 °F 70% 29.98 in 10.0 mi SSE 18.4 mph 27.6 mph N/A   Clear
8:15 PM 63.3 °F 52.0 °F 66% 29.97 in 10.0 mi SSE 23.0 mph 31.1 mph N/A   Clear
8:35 PM 63.5 °F 50.9 °F 63% 29.97 in 10.0 mi SSE 24.2 mph 32.2 mph N/A   Clear
8:55 PM 63.1 °F 50.0 °F 62% 29.97 in 10.0 mi SSE 23.0 mph 31.1 mph N/A   Clear
9:15 PM 62.8 °F 49.1 °F 61% 29.97 in 10.0 mi South 24.2 mph 29.9 mph N/A   Clear
9:35 PM 62.4 °F 48.4 °F 60% 29.97 in 10.0 mi SSE 21.9 mph 32.2 mph N/A   Clear
9:55 PM 62.1 °F 47.8 °F 60% 29.97 in 10.0 mi SSE 23.0 mph 29.9 mph N/A   Clear
10:15 PM 61.5 °F 47.8 °F 61% 29.96 in 10.0 mi SSE 20.7 mph 29.9 mph N/A   Clear
10:55 PM 61.0 °F 47.7 °F 62% 29.96 in 10.0 mi SSE 23.0 mph 28.8 mph N/A   Clear
11:15 PM 60.6 °F 47.7 °F 62% 29.95 in 10.0 mi SSE 20.7 mph 26.5 mph N/A   Clear
11:35 PM 60.6 °F 47.8 °F 63% 29.95 in 10.0 mi SSE 19.6 mph 26.5 mph N/A   Clear
11:55 PM 60.6 °F 48.2 °F 64% 29.95 in 10.0 mi SSE 19.6 mph 26.5 mph N/A   Clear